Alva, OK

6:53 PM CDT on September 25, 2016 (GMT -0500)
Alva Regional

Weather History for KAVK - July, 2013

Change the Weather History Date:

Saturday, July 13, 2013

  Actual Average Record
Temperature  
Mean Temperature 88 °F -  
Max Temperature 104 °F 97 °F 113 °F (1954)
Min Temperature 73 °F 71 °F 54 °F (1953)
Cooling Degree Days 24    
Growing Degree Days 38 (Base 50)    
Moisture  
Dew Point 63 °F    
Average Humidity 45    
Maximum Humidity 78    
Minimum Humidity 21    
Precipitation  
Precipitation 0.00 in - - ()
Sea Level Pressure  
Sea Level Pressure 29.94 in    
Wind  
Wind Speed 13 mph (South)    
Max Wind Speed 22 mph    
Max Gust Speed 29 mph    
Visibility 10 miles    
Events      
Averages and records for this station are not official NWS values.
T = Trace of Precipitation, MM = Missing Value Source: NWS Daily Summary

Daily Weather History Graph

Daily Weather History Graph

Search for Another Location

Airport or City:

Trip Planner

Search our weather history database for the weather conditions in past years. The results will help you decide how hot, cold, wet, or windy it might be!

Date:

Astronomy

Jul. 13, 2013 Rise Set
Actual Time 6:26 AM CDT 8:54 PM CDT
Civil Twilight 5:56 AM CDT 9:24 PM CDT
Nautical Twilight 5:19 AM CDT 10:01 PM CDT
Astronomical Twilight 4:38 AM CDT 10:42 PM CDT
Moon 11:34 AM CDT (7/13) 11:46 PM CDT (7/13)
Length of Visible Light 15h 27m
Length of Day
14h 28m
Waxing Crescent, 26% of the Moon is Illuminated
Jul 13
Waxing Crescent
Jul 15
First Quarter
Jul 22
Full
Jul 29
Last Quarter
Aug 6
New

Hourly Weather History & Observations

Time (CDT) Temp. Heat Index Dew Point Humidity Pressure Visibility Wind Dir Wind Speed Gust Speed Precip Events Conditions
12:00 AM 84.2 °F 87.3 °F 68.0 °F 58% 29.97 in 10.0 mi SSE 10.4 mph - N/A   Clear
12:20 AM 82.4 °F 85.4 °F 68.0 °F 62% 29.97 in 10.0 mi SSE 11.5 mph - N/A   Clear
12:45 AM 82.4 °F 85.4 °F 68.0 °F 62% 29.97 in 10.0 mi SSE 13.8 mph 19.6 mph N/A   Clear
1:00 AM 82.4 °F 85.4 °F 68.0 °F 62% 29.97 in 10.0 mi SSE 13.8 mph - N/A   Clear
1:20 AM 82.4 °F 84.6 °F 66.2 °F 58% 29.97 in 10.0 mi South 15.0 mph - N/A   Clear
1:40 AM 82.4 °F 84.6 °F 66.2 °F 58% 29.98 in 10.0 mi South 13.8 mph - N/A   Clear
2:00 AM 82.4 °F 84.6 °F 66.2 °F 58% 29.97 in 10.0 mi South 12.7 mph - N/A   Clear
2:20 AM 80.6 °F 82.7 °F 66.2 °F 61% 29.97 in 10.0 mi South 12.7 mph 16.1 mph N/A   Clear
2:40 AM 80.6 °F 82.7 °F 66.2 °F 61% 29.97 in 10.0 mi South 12.7 mph - N/A   Clear
3:00 AM 80.6 °F 82.7 °F 66.2 °F 61% 29.97 in 10.0 mi South 11.5 mph - N/A   Clear
3:20 AM 78.8 °F - 66.2 °F 65% 29.97 in 10.0 mi South 11.5 mph - N/A   Clear
3:40 AM 77.0 °F - 66.2 °F 69% 29.97 in 10.0 mi South 10.4 mph - N/A   Clear
4:00 AM 77.0 °F - 66.2 °F 69% 29.97 in 10.0 mi South 10.4 mph - N/A   Clear
4:25 AM 77.0 °F - 66.2 °F 69% 29.97 in 10.0 mi South 9.2 mph - N/A   Clear
4:40 AM 75.2 °F - 66.2 °F 73% 29.97 in 10.0 mi SSE 8.1 mph - N/A   Clear
5:00 AM 75.2 °F - 66.2 °F 73% 29.97 in 10.0 mi SSE 9.2 mph - N/A   Clear
5:20 AM 75.2 °F - 66.2 °F 73% 29.97 in 10.0 mi SSE 9.2 mph - N/A   Clear
5:40 AM 75.2 °F - 66.2 °F 73% 29.97 in 10.0 mi SSE 10.4 mph - N/A   Clear
6:00 AM 75.2 °F - 66.2 °F 73% 29.98 in 10.0 mi South 9.2 mph - N/A   Clear
6:20 AM 73.4 °F - 66.2 °F 78% 29.98 in 10.0 mi South 8.1 mph - N/A   Clear
6:40 AM 73.4 °F - 66.2 °F 78% 29.98 in 10.0 mi South 8.1 mph - N/A   Clear
7:00 AM 75.2 °F - 66.2 °F 73% 29.99 in 10.0 mi South 10.4 mph - N/A   Clear
7:20 AM 77.0 °F - 66.2 °F 69% 29.99 in 10.0 mi South 11.5 mph - N/A   Clear
7:40 AM 78.8 °F - 66.2 °F 65% 29.99 in 10.0 mi South 13.8 mph - N/A   Clear
8:00 AM 80.6 °F 82.7 °F 66.2 °F 61% 29.99 in 10.0 mi South 16.1 mph - N/A   Clear
8:20 AM 82.4 °F 84.6 °F 66.2 °F 58% 29.99 in 10.0 mi South 18.4 mph - N/A   Clear
8:40 AM 84.2 °F 86.6 °F 66.2 °F 55% 29.99 in 10.0 mi South 17.3 mph 21.9 mph N/A   Clear
9:00 AM 84.2 °F 86.6 °F 66.2 °F 55% 29.98 in 10.0 mi SSW 15.0 mph 19.6 mph N/A   Clear
9:20 AM 86.0 °F 88.2 °F 66.2 °F 51% 29.98 in 10.0 mi South 17.3 mph - N/A   Clear
9:40 AM 87.8 °F 90.4 °F 66.2 °F 49% 29.98 in 10.0 mi SSW 17.3 mph 24.2 mph N/A   Clear
10:00 AM 91.4 °F 93.2 °F 64.4 °F 41% 29.98 in 10.0 mi SSW 18.4 mph 24.2 mph N/A   Clear
10:20 AM 91.4 °F 93.2 °F 64.4 °F 41% 29.97 in 10.0 mi SSW 18.4 mph 26.5 mph N/A   Clear
10:40 AM 91.4 °F 93.2 °F 64.4 °F 41% 29.97 in 10.0 mi SSW 15.0 mph 23.0 mph N/A   Clear
11:00 AM 93.2 °F 94.9 °F 64.4 °F 38% 29.97 in 10.0 mi SSW 13.8 mph - N/A   Clear
11:20 AM 95.0 °F 97.0 °F 64.4 °F 36% 29.97 in 10.0 mi SSW 10.4 mph - N/A   Clear
11:45 AM 96.8 °F 97.1 °F 60.8 °F 30% 29.97 in 10.0 mi SW 10.4 mph 21.9 mph N/A   Clear
12:00 PM 98.6 °F 99.4 °F 60.8 °F 29% 29.97 in 10.0 mi SW 17.3 mph 21.9 mph N/A   Clear
12:20 PM 98.6 °F 99.4 °F 60.8 °F 29% 29.96 in 10.0 mi WSW 6.9 mph 19.6 mph N/A   Clear
12:40 PM 100.4 °F 100.2 °F 59.0 °F 25% 29.96 in 10.0 mi SSW 8.1 mph 16.1 mph N/A   Clear
1:00 PM 100.4 °F 100.2 °F 59.0 °F 25% 29.95 in 10.0 mi WSW 10.4 mph - N/A   Clear
1:20 PM 100.4 °F 100.2 °F 59.0 °F 25% 29.95 in 10.0 mi SSW 6.9 mph 17.3 mph N/A   Clear
1:40 PM 100.4 °F 100.2 °F 59.0 °F 25% 29.94 in 10.0 mi SSE 6.9 mph - N/A   Clear
2:00 PM 102.2 °F 101.4 °F 57.2 °F 22% 29.93 in 10.0 mi SW 11.5 mph - N/A   Clear
2:25 PM 102.2 °F 102.4 °F 59.0 °F 24% 29.92 in 10.0 mi South 15.0 mph 19.6 mph N/A   Clear
2:40 PM 102.2 °F 101.4 °F 57.2 °F 22% 29.92 in 10.0 mi South 9.2 mph 18.4 mph N/A   Clear
3:00 PM 102.2 °F 102.4 °F 59.0 °F 24% 29.91 in 10.0 mi SSW 11.5 mph - N/A   Clear
3:20 PM 104.0 °F 103.4 °F 57.2 °F 21% 29.91 in 10.0 mi SW 5.8 mph 17.3 mph N/A   Clear
3:40 PM 102.2 °F 102.4 °F 59.0 °F 24% 29.90 in 10.0 mi SSE 11.5 mph 24.2 mph N/A   Clear
4:00 PM 102.2 °F 101.4 °F 57.2 °F 22% 29.90 in 10.0 mi SSE 10.4 mph 24.2 mph N/A   Clear
4:20 PM 102.2 °F 101.4 °F 57.2 °F 22% 29.89 in 10.0 mi SE 13.8 mph - N/A   Clear
4:40 PM 104.0 °F 103.4 °F 57.2 °F 21% 29.89 in 10.0 mi SSE 10.4 mph 18.4 mph N/A   Clear
5:00 PM 102.2 °F 101.4 °F 57.2 °F 22% 29.88 in 10.0 mi South 11.5 mph 21.9 mph N/A   Scattered Clouds
5:20 PM 104.0 °F 103.4 °F 57.2 °F 21% 29.88 in 10.0 mi SE 12.7 mph 18.4 mph N/A   Mostly Cloudy
5:40 PM 102.2 °F 101.4 °F 57.2 °F 22% 29.87 in 10.0 mi South 13.8 mph 19.6 mph N/A   Partly Cloudy
6:00 PM 102.2 °F 102.4 °F 59.0 °F 24% 29.87 in 10.0 mi SSE 11.5 mph 21.9 mph N/A   Clear
6:20 PM 102.2 °F 102.4 °F 59.0 °F 24% 29.86 in 10.0 mi SSE 13.8 mph 21.9 mph N/A   Clear
6:40 PM 102.2 °F 102.4 °F 59.0 °F 24% 29.86 in 10.0 mi SSE 18.4 mph - N/A   Clear
7:00 PM 100.4 °F 100.2 °F 59.0 °F 25% 29.86 in 10.0 mi SE 15.0 mph - N/A   Clear
7:20 PM 100.4 °F 100.2 °F 59.0 °F 25% 29.86 in 10.0 mi SSE 17.3 mph - N/A   Clear
7:40 PM 98.6 °F 99.4 °F 60.8 °F 29% 29.86 in 10.0 mi SSE 15.0 mph 24.2 mph N/A   Clear
8:00 PM 96.8 °F 99.0 °F 64.4 °F 34% 29.86 in 10.0 mi SSE 21.9 mph 27.6 mph N/A   Clear
8:20 PM 95.0 °F 97.0 °F 64.4 °F 36% 29.87 in 10.0 mi SSE 19.6 mph - N/A   Clear
8:40 PM 93.2 °F 96.2 °F 66.2 °F 41% 29.88 in 10.0 mi SSE 19.6 mph 28.8 mph N/A   Clear
9:00 PM 91.4 °F 94.0 °F 66.2 °F 43% 29.88 in 10.0 mi SE 18.4 mph 27.6 mph N/A   Clear
9:20 PM 91.4 °F 94.0 °F 66.2 °F 43% 29.89 in 10.0 mi SE 19.6 mph 25.3 mph N/A   Clear
9:40 PM 89.6 °F 92.2 °F 66.2 °F 46% 29.90 in 10.0 mi SE 18.4 mph 25.3 mph N/A   Clear
10:00 PM 89.6 °F 92.2 °F 66.2 °F 46% 29.91 in 10.0 mi SSE 16.1 mph 21.9 mph N/A   Clear
10:20 PM 87.8 °F 90.4 °F 66.2 °F 49% 29.92 in 10.0 mi SSE 17.3 mph 23.0 mph N/A   Clear
10:40 PM 86.0 °F 88.2 °F 66.2 °F 51% 29.92 in 10.0 mi SSE 17.3 mph 21.9 mph N/A   Clear
11:00 PM 86.0 °F 88.2 °F 66.2 °F 51% 29.93 in 10.0 mi SSE 18.4 mph 23.0 mph N/A   Clear
11:20 PM 86.0 °F 88.2 °F 66.2 °F 51% 29.92 in 10.0 mi SSE 15.0 mph - N/A   Clear
11:40 PM 86.0 °F 88.2 °F 66.2 °F 51% 29.92 in 10.0 mi SSE 16.1 mph - N/A   Clear